Vorticity
13 14 16 17 16 18 18 15 22 17 22 19 25 18 5 18 6 14 10 9 8 1 -1 21 7 8 6 27 31 15 5 6 9 -11 1 23 11 16 -2 -26 38 23 -31 6
14 16 17 17 18 30 25 25 24 29 18 7 9 11 3 7 11 1 5 9 19 23 9 15 18 -2 -7 -19 3 10 8 1 20 26 3 25 -5 2 -0 7 -8 -6 -2 -2
20 25 27 24 20 7 12 17 15 12 23 30 6 11 6 10 16 4 9 12 5 3 2 0 -0 2 20 16 11 5 1 8 -21 -29 -14 -22 30 38 15 8 2 8 -3 -9
20 7 8 11 10 9 13 21 8 3 1 1 11 -2 -0 20 22 19 22 26 27 25 20 17 14 11 7 -11 16 2 2 14 19 17 16 -0 -11 1 10 33 19 -3 6 20
5 4 7 8 12 10 10 11 12 -3 2 17 14 21 16 3 17 11 26 -22 12 -13 21 28 51 20 36 14 22 24 -2 0 2 9 8 4 1 1 -6 -7 -8 -7 0 0
5 6 7 8 15 11 9 7 16 12 9 6 10 11 14 5 11 38 19 10 3 9 -17 18 4 -2 6 -6 29 -12 2 22 13 10 2 13 47 20 14 6 -1 3 2 -1
7 8 8 13 19 11 9 10 8 9 9 13 3 0 5 8 9 7 13 16 11 19 11 14 0 -3 17 19 20 -17 -4 15 18 15 34 37 9 14 4 30 31 33 38 39
10 11 11 9 14 16 13 16 13 9 13 17 13 14 9 6 9 13 10 9 -5 25 15 12 26 30 27 7 15 5 15 0 -2 13 -3 -24 -13 8 21 4 10 12 9 7
12 11 14 4 10 15 19 20 19 9 26 17 12 5 4 12 12 14 15 6 29 39 15 19 17 -1 3 43 25 26 10 15 -1 -34 -0 26 38 3 21 12 15 1 -5 5
13 13 11 8 2 12 13 23 22 12 8 19 22 6 0 11 3 7 9 7 13 2 27 5 10 14 22 12 6 22 7 18 10 10 16 10 16 -3 -6 14 8 8 17 24
10 12 24 23 7 8 32 16 28 7 12 10 10 6 4 12 6 6 11 25 23 26 8 13 20 1 -1 38 18 36 18 28 50 28 33 14 22 37 23 10 12 14 6 2
12 12 21 26 19 11 13 2 6 27 10 4 2 11 15 19 17 3 3 -0 12 -8 2 4 6 -5 9 11 18 4 10 27 13 13 6 1 8 8 13 13 17 16 21 16
7 9 23 16 10 14 27 20 25 6 4 8 3 12 -3 9 8 2 13 23 18 12 8 19 18 11 5 17 1 8 -4 11 11 31 15 7 6 -5 13 14 13 16 10 15
20 11 10 9 15 13 17 20 8 6 6 10 14 -9 17 20 22 14 14 12 13 12 13 15 8 9 28 2 -1 16 14 12 16 5 14 36 -6 24 20 18 19 20 18 15
16 14 12 9 20 18 9 7 6 11 15 -4 8 21 12 5 9 11 7 11 22 18 9 10 21 11 -1 17 26 2 12 8 15 11 9 5 9 10 14 15 16 21 24 22
16 20 18 13 9 9 8 11 18 8 14 11 18 10 5 14 2 10 8 13 20 18 9 7 15 13 14 12 18 13 8 3 1 17 6 -2 6 3 7 8 8 14 17 25
16 24 21 19 18 15 18 10 8 13 6 15 17 12 21 -4 15 10 15 19 20 21 30 16 15 13 22 15 8 18 8 4 8 3 19 22 6 10 6 7 5 5 11 20
20 18 20 17 15 14 15 15 11 15 16 17 10 9 19 11 16 21 9 15 16 9 17 18 13 18 17 10 11 11 12 9 0 3 7 6 7 7 11 11 11 6 7 10
15 16 11 10 12 15 3 10 28 8 14 8 -0 17 14 8 23 13 10 11 9 16 19 19 16 10 7 13 10 10 10 13 16 13 12 3 3 9 11 12 14 14 12 6
9 11 8 13 10 13 13 10 10 9 5 3 2 12 14 16 21 6 17 9 12 9 10 7 11 4 8 11 11 10 10 11 12 11 12 17 12 15 13 11 11 11 11 12
15 11 7 14 14 7 16 6 16 11 14 -1 5 10 14 12 14 4 15 10 12 12 9 12 12 -2 7 10 10 10 10 10 10 11 11 11 11 10 10 10 10 10 11 11
16 19 11 5 16 10 18 10 5 16 2 7 11 12 17 11 16 11 13 12 14 10 10 11 11 3 8 9 10 10 10 10 11 11 11 12 13 12 12 11 12 12 12 12
13 16 15 12 1 8 2 2 0 13 11 13 10 11 18 14 8 10 13 13 15 9 11 12 8 6 8 8 9 10 10 10 11 11 11 11 11 12 12 11 11 12 12 13
8 10 11 9 9 -1 9 11 11 16 13 21 12 12 12 6 16 12 12 16 6 10 12 10 6 8 8 8 9 10 10 11 12 12 12 12 12 11 11 11 11 10 10 10
16 12 8 5 3 11 11 16 17 18 17 20 15 14 12 16 13 11 12 12 12 10 7 7 8 9 9 9 11 11 11 12 12 12 13 13 13 13 13 13 13 13 13 12
11 12 9 1 6 10 9 13 14 21 18 21 15 11 11 12 12 13 13 12 9 7 7 9 10 11 11 12 12 11 12 12 12 12 12 13 13 13 14 13 13 14 13 13
13 5 6 4 8 11 12 11 9 14 14 21 15 12 13 14 12 12 13 10 9 9 10 11 13 12 12 12 11 11 11 12 12 13 13 12 12 12 13 13 14 14 14 13
Height
3044 3040 3036 3031 3027 3025 3026 3024 3024 3022 3024 3024 3020 3015 3018 3017 3017 3017 3016 3015 3014 3015 3017 3014 3014 3013 3015 3014 3015 3016 3017 3017 3015 3015 3018 3018 3018 3017 3020 3018 3017 3015 3015 3010
3034 3030 3026 3022 3017 3013 3011 3013 3011 3013 3014 3012 3012 3011 3008 3009 3007 3008 3009 3007 3006 3008 3007 3008 3005 3006 3010 3010 3008 3010 3011 3008 3010 3011 3012 3011 3009 3011 3013 3013 3013 3007 3009 3004
3026 3022 3019 3015 3013 3009 3008 3007 3006 3006 3004 3005 3002 2999 2998 2998 3001 2998 2999 2997 2999 2999 2997 2998 2994 2997 3000 2998 3001 3003 3003 3001 2998 2996 3001 3004 3000 3000 3002 3005 3002 3001 2995 3000
3022 3019 3016 3013 3010 3006 3005 3003 3005 3000 3000 2999 2995 2995 2992 2993 2991 2989 2990 2988 2984 2983 2984 2987 2986 2989 2992 2991 2993 2993 2994 2989 2994 2991 2994 2996 2994 2994 2994 2994 2992 2994 2991 2992
3019 3016 3013 3010 3007 3003 3002 3001 2999 2998 2996 2995 2993 2991 2990 2989 2987 2984 2982 2980 2977 2977 2977 2977 2976 2975 2978 2980 2980 2982 2985 2978 2985 2981 2985 2987 2985 2986 2987 2985 2986 2984 2985 2983
3016 3013 3010 3006 3003 3000 2997 2996 2994 2992 2991 2991 2991 2989 2986 2984 2982 2981 2980 2977 2974 2971 2974 2969 2967 2968 2970 2972 2972 2975 2975 2976 2977 2970 2976 2979 2974 2970 2977 2977 2977 2980 2976 2981
3012 3009 3006 3002 2999 2996 2993 2992 2990 2989 2987 2987 2987 2985 2983 2980 2979 2976 2974 2974 2971 2970 2966 2962 2963 2963 2963 2965 2967 2969 2968 2971 2971 2968 2968 2962 2960 2969 2969 2967 2969 2972 2970 2972
3009 3005 3001 2998 2995 2992 2987 2986 2985 2984 2982 2983 2982 2981 2979 2977 2976 2974 2971 2969 2966 2963 2962 2961 2958 2956 2957 2956 2959 2963 2965 2967 2964 2963 2957 2957 2961 2958 2959 2959 2963 2960 2960 2961
3004 3000 2997 2994 2990 2986 2982 2980 2979 2979 2978 2978 2977 2976 2975 2973 2972 2970 2969 2965 2962 2960 2959 2959 2957 2955 2953 2950 2952 2955 2957 2958 2960 2957 2956 2952 2954 2951 2952 2953 2954 2952 2953 2954
2999 2994 2991 2988 2985 2981 2978 2975 2974 2974 2974 2973 2973 2973 2972 2970 2969 2966 2965 2961 2959 2958 2956 2955 2953 2950 2949 2948 2948 2949 2947 2947 2946 2948 2947 2948 2945 2946 2947 2949 2949 2944 2945 2946
2994 2988 2984 2981 2979 2976 2973 2971 2970 2970 2969 2970 2969 2969 2968 2967 2966 2964 2963 2959 2956 2955 2954 2953 2951 2949 2947 2946 2945 2943 2944 2942 2941 2941 2937 2940 2938 2938 2943 2939 2939 2938 2938 2940
2990 2984 2979 2975 2973 2972 2970 2969 2967 2966 2966 2966 2967 2965 2964 2962 2960 2960 2958 2958 2956 2954 2953 2952 2950 2950 2948 2947 2945 2943 2944 2944 2942 2944 2940 2938 2936 2936 2935 2933 2932 2933 2933 2932
2986 2981 2976 2973 2970 2968 2966 2964 2963 2965 2965 2965 2963 2961 2960 2958 2957 2957 2956 2954 2953 2952 2952 2950 2950 2949 2948 2946 2943 2944 2944 2942 2941 2940 2939 2937 2934 2934 2932 2930 2928 2927 2927 2926
2981 2978 2974 2971 2968 2966 2965 2964 2963 2963 2962 2961 2960 2958 2956 2955 2954 2953 2952 2950 2949 2949 2949 2948 2948 2948 2945 2944 2944 2943 2943 2940 2939 2938 2936 2933 2933 2931 2928 2926 2924 2922 2920 2918
2977 2974 2971 2969 2966 2964 2962 2962 2961 2960 2962 2959 2957 2954 2954 2952 2951 2950 2948 2946 2945 2945 2945 2945 2945 2944 2944 2942 2942 2942 2941 2939 2939 2937 2936 2934 2933 2929 2926 2924 2920 2917 2914 2913
2973 2969 2967 2965 2963 2962 2961 2960 2959 2958 2957 2956 2955 2953 2951 2950 2949 2947 2945 2944 2942 2942 2941 2942 2941 2941 2942 2941 2940 2942 2941 2940 2938 2937 2935 2934 2932 2929 2925 2923 2919 2915 2911 2907
2970 2966 2964 2962 2961 2960 2960 2960 2958 2956 2955 2954 2953 2952 2950 2948 2947 2945 2943 2941 2940 2939 2938 2938 2939 2939 2939 2938 2939 2941 2940 2939 2938 2937 2935 2933 2932 2929 2927 2924 2920 2916 2913 2910
2969 2966 2963 2961 2960 2959 2958 2956 2955 2954 2954 2953 2953 2951 2949 2947 2945 2944 2942 2940 2939 2938 2937 2938 2937 2938 2937 2938 2939 2939 2938 2938 2937 2936 2934 2932 2930 2929 2927 2925 2923 2920 2917 2913
2970 2967 2965 2963 2961 2960 2958 2956 2954 2954 2956 2953 2952 2950 2949 2946 2944 2943 2942 2941 2939 2939 2938 2938 2939 2937 2938 2939 2938 2937 2937 2936 2935 2934 2932 2931 2930 2928 2926 2924 2922 2920 2918 2916
2970 2968 2966 2964 2962 2960 2959 2958 2957 2955 2955 2953 2952 2950 2948 2947 2944 2943 2943 2941 2940 2941 2941 2939 2938 2939 2940 2939 2938 2937 2936 2935 2934 2933 2931 2929 2928 2927 2925 2923 2922 2920 2918 2917
2971 2969 2967 2965 2963 2961 2959 2958 2957 2955 2954 2953 2952 2950 2947 2946 2945 2944 2943 2942 2941 2942 2943 2942 2941 2941 2940 2939 2938 2937 2935 2934 2932 2931 2930 2928 2927 2925 2924 2922 2921 2920 2918 2917
2972 2969 2967 2966 2964 2963 2962 2959 2958 2956 2954 2953 2951 2949 2947 2946 2944 2944 2943 2942 2942 2942 2942 2941 2941 2941 2940 2938 2937 2936 2935 2933 2932 2930 2929 2928 2926 2924 2923 2921 2920 2919 2918 2916
2973 2970 2968 2967 2967 2966 2963 2962 2959 2956 2954 2951 2949 2948 2947 2945 2945 2944 2943 2942 2942 2942 2941 2941 2941 2940 2939 2938 2936 2935 2933 2932 2931 2929 2927 2925 2924 2922 2921 2920 2919 2918 2916 2915
2974 2972 2971 2970 2969 2967 2964 2961 2958 2955 2951 2949 2947 2946 2946 2945 2944 2943 2942 2942 2942 2941 2942 2942 2940 2939 2938 2937 2935 2934 2932 2931 2929 2927 2926 2924 2922 2921 2920 2918 2917 2916 2915 2914
2974 2974 2973 2971 2970 2966 2963 2959 2956 2952 2949 2947 2946 2945 2945 2944 2943 2943 2943 2942 2941 2942 2942 2940 2940 2938 2937 2935 2934 2932 2931 2929 2927 2926 2924 2922 2921 2919 2918 2917 2915 2915 2913 2913
2975 2974 2973 2971 2968 2965 2962 2958 2955 2951 2948 2946 2946 2945 2944 2943 2943 2943 2941 2942 2942 2942 2940 2940 2938 2937 2936 2934 2933 2931 2930 2928 2926 2925 2923 2921 2920 2918 2917 2916 2915 2913 2913 2911
2975 2973 2971 2969 2967 2964 2961 2958 2954 2951 2949 2946 2945 2945 2944 2944 2942 2942 2942 2942 2942 2940 2939 2938 2937 2936 2935 2934 2932 2931 2929 2928 2926 2924 2923 2921 2919 2918 2916 2915 2913 2912 2911 2910